Index of /20260423/WXO-DD/model_rdps/10km/12/004
Name Last modified Size Description
Parent Directory -
20260423T12Z_MSC_RDPS_AbsoluteVorticity_IsbL-0250_RLatLon0.09_PT004H.grib2 2026-04-23 14:41 602K
20260423T12Z_MSC_RDPS_AbsoluteVorticity_IsbL-0500_RLatLon0.09_PT004H.grib2 2026-04-23 14:41 558K
20260423T12Z_MSC_RDPS_AbsoluteVorticity_IsbL-0700_RLatLon0.09_PT004H.grib2 2026-04-23 14:41 616K
20260423T12Z_MSC_RDPS_AbsoluteVorticity_IsbL-0850_RLatLon0.09_PT004H.grib2 2026-04-23 14:41 776K
20260423T12Z_MSC_RDPS_AirTemp_AGL-120m_RLatLon0.09_PT004H.grib2 2026-04-23 14:41 379K
20260423T12Z_MSC_RDPS_AirTemp_AGL-2m_RLatLon0.09_PT004H.grib2 2026-04-23 14:41 631K
20260423T12Z_MSC_RDPS_AirTemp_AGL-40m_RLatLon0.09_PT004H.grib2 2026-04-23 14:41 390K
20260423T12Z_MSC_RDPS_AirTemp_AGL-80m_RLatLon0.09_PT004H.grib2 2026-04-23 14:41 384K
20260423T12Z_MSC_RDPS_AirTemp_IsbL-0001_RLatLon0.09_PT004H.grib2 2026-04-23 14:41 270K
20260423T12Z_MSC_RDPS_AirTemp_IsbL-0005_RLatLon0.09_PT004H.grib2 2026-04-23 14:41 276K
20260423T12Z_MSC_RDPS_AirTemp_IsbL-0010_RLatLon0.09_PT004H.grib2 2026-04-23 14:41 286K
20260423T12Z_MSC_RDPS_AirTemp_IsbL-0020_RLatLon0.09_PT004H.grib2 2026-04-23 14:41 304K
20260423T12Z_MSC_RDPS_AirTemp_IsbL-0030_RLatLon0.09_PT004H.grib2 2026-04-23 14:41 323K
20260423T12Z_MSC_RDPS_AirTemp_IsbL-0050_RLatLon0.09_PT004H.grib2 2026-04-23 14:41 307K
20260423T12Z_MSC_RDPS_AirTemp_IsbL-0100_RLatLon0.09_PT004H.grib2 2026-04-23 14:41 416K
20260423T12Z_MSC_RDPS_AirTemp_IsbL-0150_RLatLon0.09_PT004H.grib2 2026-04-23 14:41 420K
20260423T12Z_MSC_RDPS_AirTemp_IsbL-0175_RLatLon0.09_PT004H.grib2 2026-04-23 14:41 420K
20260423T12Z_MSC_RDPS_AirTemp_IsbL-0200_RLatLon0.09_PT004H.grib2 2026-04-23 14:41 421K
20260423T12Z_MSC_RDPS_AirTemp_IsbL-0225_RLatLon0.09_PT004H.grib2 2026-04-23 14:41 416K
20260423T12Z_MSC_RDPS_AirTemp_IsbL-0250_RLatLon0.09_PT004H.grib2 2026-04-23 14:41 416K
20260423T12Z_MSC_RDPS_AirTemp_IsbL-0275_RLatLon0.09_PT004H.grib2 2026-04-23 14:41 400K
20260423T12Z_MSC_RDPS_AirTemp_IsbL-0300_RLatLon0.09_PT004H.grib2 2026-04-23 14:41 405K
20260423T12Z_MSC_RDPS_AirTemp_IsbL-0350_RLatLon0.09_PT004H.grib2 2026-04-23 14:41 422K
20260423T12Z_MSC_RDPS_AirTemp_IsbL-0400_RLatLon0.09_PT004H.grib2 2026-04-23 14:41 423K
20260423T12Z_MSC_RDPS_AirTemp_IsbL-0450_RLatLon0.09_PT004H.grib2 2026-04-23 14:41 399K
20260423T12Z_MSC_RDPS_AirTemp_IsbL-0500_RLatLon0.09_PT004H.grib2 2026-04-23 14:41 412K
20260423T12Z_MSC_RDPS_AirTemp_IsbL-0550_RLatLon0.09_PT004H.grib2 2026-04-23 14:41 432K
20260423T12Z_MSC_RDPS_AirTemp_IsbL-0600_RLatLon0.09_PT004H.grib2 2026-04-23 14:41 446K
20260423T12Z_MSC_RDPS_AirTemp_IsbL-0650_RLatLon0.09_PT004H.grib2 2026-04-23 14:41 460K
20260423T12Z_MSC_RDPS_AirTemp_IsbL-0700_RLatLon0.09_PT004H.grib2 2026-04-23 14:41 485K
20260423T12Z_MSC_RDPS_AirTemp_IsbL-0750_RLatLon0.09_PT004H.grib2 2026-04-23 14:41 529K
20260423T12Z_MSC_RDPS_AirTemp_IsbL-0800_RLatLon0.09_PT004H.grib2 2026-04-23 14:41 462K
20260423T12Z_MSC_RDPS_AirTemp_IsbL-0850_RLatLon0.09_PT004H.grib2 2026-04-23 14:41 504K
20260423T12Z_MSC_RDPS_AirTemp_IsbL-0875_RLatLon0.09_PT004H.grib2 2026-04-23 14:41 517K
20260423T12Z_MSC_RDPS_AirTemp_IsbL-0900_RLatLon0.09_PT004H.grib2 2026-04-23 14:41 525K
20260423T12Z_MSC_RDPS_AirTemp_IsbL-0925_RLatLon0.09_PT004H.grib2 2026-04-23 14:41 524K
20260423T12Z_MSC_RDPS_AirTemp_IsbL-0950_RLatLon0.09_PT004H.grib2 2026-04-23 14:41 527K
20260423T12Z_MSC_RDPS_AirTemp_IsbL-0970_RLatLon0.09_PT004H.grib2 2026-04-23 14:41 521K
20260423T12Z_MSC_RDPS_AirTemp_IsbL-0985_RLatLon0.09_PT004H.grib2 2026-04-23 14:41 514K
20260423T12Z_MSC_RDPS_AirTemp_IsbL-1000_RLatLon0.09_PT004H.grib2 2026-04-23 14:41 499K
20260423T12Z_MSC_RDPS_AirTemp_IsbL-1015_RLatLon0.09_PT004H.grib2 2026-04-23 14:41 509K
20260423T12Z_MSC_RDPS_Albedo_Sfc_RLatLon0.09_PT004H.grib2 2026-04-23 14:41 165K
20260423T12Z_MSC_RDPS_CAPE_Sfc_RLatLon0.09_PT004H.grib2 2026-04-23 14:41 1.7M
20260423T12Z_MSC_RDPS_CIN_Sfc_RLatLon0.09_PT004H.grib2 2026-04-23 14:41 1.2M
20260423T12Z_MSC_RDPS_CloudWater_EAtm_RLatLon0.09_PT004H.grib2 2026-04-23 14:41 210K
20260423T12Z_MSC_RDPS_ConvectivePrecip-Accum_Sfc_RLatLon0.09_PT004H.grib2 2026-04-23 14:41 428K
20260423T12Z_MSC_RDPS_DewPointDepression_AGL-2m_RLatLon0.09_PT004H.grib2 2026-04-23 14:41 414K
20260423T12Z_MSC_RDPS_DewPointDepression_IsbL-0001_RLatLon0.09_PT004H.grib2 2026-04-23 14:41 193
20260423T12Z_MSC_RDPS_DewPointDepression_IsbL-0005_RLatLon0.09_PT004H.grib2 2026-04-23 14:41 193
20260423T12Z_MSC_RDPS_DewPointDepression_IsbL-0010_RLatLon0.09_PT004H.grib2 2026-04-23 14:41 193
20260423T12Z_MSC_RDPS_DewPointDepression_IsbL-0020_RLatLon0.09_PT004H.grib2 2026-04-23 14:41 193
20260423T12Z_MSC_RDPS_DewPointDepression_IsbL-0030_RLatLon0.09_PT004H.grib2 2026-04-23 14:41 193
20260423T12Z_MSC_RDPS_DewPointDepression_IsbL-0050_RLatLon0.09_PT004H.grib2 2026-04-23 14:41 114K
20260423T12Z_MSC_RDPS_DewPointDepression_IsbL-0100_RLatLon0.09_PT004H.grib2 2026-04-23 14:41 123K
20260423T12Z_MSC_RDPS_DewPointDepression_IsbL-0150_RLatLon0.09_PT004H.grib2 2026-04-23 14:41 150K
20260423T12Z_MSC_RDPS_DewPointDepression_IsbL-0175_RLatLon0.09_PT004H.grib2 2026-04-23 14:41 190K
20260423T12Z_MSC_RDPS_DewPointDepression_IsbL-0200_RLatLon0.09_PT004H.grib2 2026-04-23 14:41 223K
20260423T12Z_MSC_RDPS_DewPointDepression_IsbL-0225_RLatLon0.09_PT004H.grib2 2026-04-23 14:41 256K
20260423T12Z_MSC_RDPS_DewPointDepression_IsbL-0250_RLatLon0.09_PT004H.grib2 2026-04-23 14:41 293K
20260423T12Z_MSC_RDPS_DewPointDepression_IsbL-0275_RLatLon0.09_PT004H.grib2 2026-04-23 14:41 301K
20260423T12Z_MSC_RDPS_DewPointDepression_IsbL-0300_RLatLon0.09_PT004H.grib2 2026-04-23 14:41 322K
20260423T12Z_MSC_RDPS_DewPointDepression_IsbL-0350_RLatLon0.09_PT004H.grib2 2026-04-23 14:41 329K
20260423T12Z_MSC_RDPS_DewPointDepression_IsbL-0400_RLatLon0.09_PT004H.grib2 2026-04-23 14:41 344K
20260423T12Z_MSC_RDPS_DewPointDepression_IsbL-0450_RLatLon0.09_PT004H.grib2 2026-04-23 14:41 354K
20260423T12Z_MSC_RDPS_DewPointDepression_IsbL-0500_RLatLon0.09_PT004H.grib2 2026-04-23 14:41 363K
20260423T12Z_MSC_RDPS_DewPointDepression_IsbL-0550_RLatLon0.09_PT004H.grib2 2026-04-23 14:41 371K
20260423T12Z_MSC_RDPS_DewPointDepression_IsbL-0600_RLatLon0.09_PT004H.grib2 2026-04-23 14:41 375K
20260423T12Z_MSC_RDPS_DewPointDepression_IsbL-0650_RLatLon0.09_PT004H.grib2 2026-04-23 14:41 373K
20260423T12Z_MSC_RDPS_DewPointDepression_IsbL-0700_RLatLon0.09_PT004H.grib2 2026-04-23 14:41 383K
20260423T12Z_MSC_RDPS_DewPointDepression_IsbL-0750_RLatLon0.09_PT004H.grib2 2026-04-23 14:41 406K
20260423T12Z_MSC_RDPS_DewPointDepression_IsbL-0800_RLatLon0.09_PT004H.grib2 2026-04-23 14:41 438K
20260423T12Z_MSC_RDPS_DewPointDepression_IsbL-0850_RLatLon0.09_PT004H.grib2 2026-04-23 14:41 459K
20260423T12Z_MSC_RDPS_DewPointDepression_IsbL-0875_RLatLon0.09_PT004H.grib2 2026-04-23 14:41 463K
20260423T12Z_MSC_RDPS_DewPointDepression_IsbL-0900_RLatLon0.09_PT004H.grib2 2026-04-23 14:41 458K
20260423T12Z_MSC_RDPS_DewPointDepression_IsbL-0925_RLatLon0.09_PT004H.grib2 2026-04-23 14:41 446K
20260423T12Z_MSC_RDPS_DewPointDepression_IsbL-0950_RLatLon0.09_PT004H.grib2 2026-04-23 14:41 440K
20260423T12Z_MSC_RDPS_DewPointDepression_IsbL-0970_RLatLon0.09_PT004H.grib2 2026-04-23 14:41 438K
20260423T12Z_MSC_RDPS_DewPointDepression_IsbL-0985_RLatLon0.09_PT004H.grib2 2026-04-23 14:41 436K
20260423T12Z_MSC_RDPS_DewPointDepression_IsbL-1000_RLatLon0.09_PT004H.grib2 2026-04-23 14:41 431K
20260423T12Z_MSC_RDPS_DewPointDepression_IsbL-1015_RLatLon0.09_PT004H.grib2 2026-04-23 14:41 423K
20260423T12Z_MSC_RDPS_DewPoint_AGL-2m_RLatLon0.09_PT004H.grib2 2026-04-23 14:41 398K
20260423T12Z_MSC_RDPS_DownwardLongwaveRadiationFlux-Accum_Sfc_RLatLon0.09_PT004H.grib2 2026-04-23 14:41 487K
20260423T12Z_MSC_RDPS_DownwardShortwaveRadiationFlux-Accum_NTAtm_RLatLon0.09_PT004H.grib2 2026-04-23 14:41 125K
20260423T12Z_MSC_RDPS_DownwardShortwaveRadiationFlux-Accum_Sfc_RLatLon0.09_PT004H.grib2 2026-04-23 14:41 446K
20260423T12Z_MSC_RDPS_FreezingRain-Accum1h_Sfc_RLatLon0.09_PT004H.grib2 2026-04-23 14:41 16K
20260423T12Z_MSC_RDPS_FreezingRain-Accum_Sfc_RLatLon0.09_PT004H.grib2 2026-04-23 14:41 32K
20260423T12Z_MSC_RDPS_GeopotentialHeight_IsbL-0001_RLatLon0.09_PT004H.grib2 2026-04-23 14:41 270K
20260423T12Z_MSC_RDPS_GeopotentialHeight_IsbL-0005_RLatLon0.09_PT004H.grib2 2026-04-23 14:41 304K
20260423T12Z_MSC_RDPS_GeopotentialHeight_IsbL-0010_RLatLon0.09_PT004H.grib2 2026-04-23 14:41 334K
20260423T12Z_MSC_RDPS_GeopotentialHeight_IsbL-0020_RLatLon0.09_PT004H.grib2 2026-04-23 14:41 300K
20260423T12Z_MSC_RDPS_GeopotentialHeight_IsbL-0030_RLatLon0.09_PT004H.grib2 2026-04-23 14:41 303K
20260423T12Z_MSC_RDPS_GeopotentialHeight_IsbL-0050_RLatLon0.09_PT004H.grib2 2026-04-23 14:41 305K
20260423T12Z_MSC_RDPS_GeopotentialHeight_IsbL-0100_RLatLon0.09_PT004H.grib2 2026-04-23 14:41 286K
20260423T12Z_MSC_RDPS_GeopotentialHeight_IsbL-0150_RLatLon0.09_PT004H.grib2 2026-04-23 14:41 228K
20260423T12Z_MSC_RDPS_GeopotentialHeight_IsbL-0175_RLatLon0.09_PT004H.grib2 2026-04-23 14:41 233K
20260423T12Z_MSC_RDPS_GeopotentialHeight_IsbL-0200_RLatLon0.09_PT004H.grib2 2026-04-23 14:41 269K
20260423T12Z_MSC_RDPS_GeopotentialHeight_IsbL-0225_RLatLon0.09_PT004H.grib2 2026-04-23 14:41 271K
20260423T12Z_MSC_RDPS_GeopotentialHeight_IsbL-0250_RLatLon0.09_PT004H.grib2 2026-04-23 14:41 272K
20260423T12Z_MSC_RDPS_GeopotentialHeight_IsbL-0275_RLatLon0.09_PT004H.grib2 2026-04-23 14:41 240K
20260423T12Z_MSC_RDPS_GeopotentialHeight_IsbL-0300_RLatLon0.09_PT004H.grib2 2026-04-23 14:41 239K
20260423T12Z_MSC_RDPS_GeopotentialHeight_IsbL-0350_RLatLon0.09_PT004H.grib2 2026-04-23 14:41 234K
20260423T12Z_MSC_RDPS_GeopotentialHeight_IsbL-0400_RLatLon0.09_PT004H.grib2 2026-04-23 14:41 230K
20260423T12Z_MSC_RDPS_GeopotentialHeight_IsbL-0450_RLatLon0.09_PT004H.grib2 2026-04-23 14:41 300K
20260423T12Z_MSC_RDPS_GeopotentialHeight_IsbL-0500_RLatLon0.09_PT004H.grib2 2026-04-23 14:41 295K
20260423T12Z_MSC_RDPS_GeopotentialHeight_IsbL-0550_RLatLon0.09_PT004H.grib2 2026-04-23 14:41 292K
20260423T12Z_MSC_RDPS_GeopotentialHeight_IsbL-0600_RLatLon0.09_PT004H.grib2 2026-04-23 14:41 287K
20260423T12Z_MSC_RDPS_GeopotentialHeight_IsbL-0650_RLatLon0.09_PT004H.grib2 2026-04-23 14:41 258K
20260423T12Z_MSC_RDPS_GeopotentialHeight_IsbL-0700_RLatLon0.09_PT004H.grib2 2026-04-23 14:41 257K
20260423T12Z_MSC_RDPS_GeopotentialHeight_IsbL-0750_RLatLon0.09_PT004H.grib2 2026-04-23 14:41 259K
20260423T12Z_MSC_RDPS_GeopotentialHeight_IsbL-0800_RLatLon0.09_PT004H.grib2 2026-04-23 14:41 354K
20260423T12Z_MSC_RDPS_GeopotentialHeight_IsbL-0850_RLatLon0.09_PT004H.grib2 2026-04-23 14:41 363K
20260423T12Z_MSC_RDPS_GeopotentialHeight_IsbL-0875_RLatLon0.09_PT004H.grib2 2026-04-23 14:41 364K
20260423T12Z_MSC_RDPS_GeopotentialHeight_IsbL-0900_RLatLon0.09_PT004H.grib2 2026-04-23 14:41 369K
20260423T12Z_MSC_RDPS_GeopotentialHeight_IsbL-0925_RLatLon0.09_PT004H.grib2 2026-04-23 14:41 369K
20260423T12Z_MSC_RDPS_GeopotentialHeight_IsbL-0950_RLatLon0.09_PT004H.grib2 2026-04-23 14:41 374K
20260423T12Z_MSC_RDPS_GeopotentialHeight_IsbL-0970_RLatLon0.09_PT004H.grib2 2026-04-23 14:41 380K
20260423T12Z_MSC_RDPS_GeopotentialHeight_IsbL-0985_RLatLon0.09_PT004H.grib2 2026-04-23 14:41 390K
20260423T12Z_MSC_RDPS_GeopotentialHeight_IsbL-1000_RLatLon0.09_PT004H.grib2 2026-04-23 14:41 402K
20260423T12Z_MSC_RDPS_GeopotentialHeight_IsbL-1015_RLatLon0.09_PT004H.grib2 2026-04-23 14:41 418K
20260423T12Z_MSC_RDPS_Humidex_Sfc_RLatLon0.09_PT004H.grib2 2026-04-23 14:41 2.4M
20260423T12Z_MSC_RDPS_IcePellets-Accum1h_Sfc_RLatLon0.09_PT004H.grib2 2026-04-23 14:41 8.7K
20260423T12Z_MSC_RDPS_IcePellets-Accum_Sfc_RLatLon0.09_PT004H.grib2 2026-04-23 14:41 16K
20260423T12Z_MSC_RDPS_KIndex_Sfc_RLatLon0.09_PT004H.grib2 2026-04-23 14:41 2.3M
20260423T12Z_MSC_RDPS_LatentHeatNetFlux_Sfc_RLatLon0.09_PT004H.grib2 2026-04-23 14:41 387K
20260423T12Z_MSC_RDPS_LiftedIndex-MU-VT_IsbL-0500_RLatLon0.09_PT004H.grib2 2026-04-23 14:41 2.4M
20260423T12Z_MSC_RDPS_NetLongwaveRadiationFlux-Accum_Sfc_RLatLon0.09_PT004H.grib2 2026-04-23 14:41 637K
20260423T12Z_MSC_RDPS_NetShortwaveRadiationFlux-Accum_Sfc_RLatLon0.09_PT004H.grib2 2026-04-23 14:41 442K
20260423T12Z_MSC_RDPS_PlanetaryBoundaryLayerHeight_Sfc_RLatLon0.09_PT004H.grib2 2026-04-23 14:41 1.2M
20260423T12Z_MSC_RDPS_Precip-Accum1h_Sfc_RLatLon0.09_PT004H.grib2 2026-04-23 14:41 1.2M
20260423T12Z_MSC_RDPS_Precip-Accum_Sfc_RLatLon0.09_PT004H.grib2 2026-04-23 14:41 1.3M
20260423T12Z_MSC_RDPS_PrecipRate_Sfc_RLatLon0.09_PT004H.grib2 2026-04-23 14:41 166K
20260423T12Z_MSC_RDPS_PrecipType-Instant_Sfc_RLatLon0.09_PT004H.grib2 2026-04-23 14:41 547K
20260423T12Z_MSC_RDPS_Pressure-Trend3h_Sfc_RLatLon0.09_PT004H.grib2 2026-04-23 14:41 1.2M
20260423T12Z_MSC_RDPS_Pressure_MSL_RLatLon0.09_PT004H.grib2 2026-04-23 14:41 332K
20260423T12Z_MSC_RDPS_Pressure_PVU-1.5_RLatLon0.09_PT004H.grib2 2026-04-23 14:41 2.5M
20260423T12Z_MSC_RDPS_Pressure_PVU-1_RLatLon0.09_PT004H.grib2 2026-04-23 14:41 2.4M
20260423T12Z_MSC_RDPS_Pressure_PVU-2_RLatLon0.09_PT004H.grib2 2026-04-23 14:41 2.4M
20260423T12Z_MSC_RDPS_Pressure_Sfc_RLatLon0.09_PT004H.grib2 2026-04-23 14:41 502K
20260423T12Z_MSC_RDPS_RadiativeTemp_Sfc_RLatLon0.09_PT004H.grib2 2026-04-23 14:41 318K
20260423T12Z_MSC_RDPS_Rain-Accum1h_Sfc_RLatLon0.09_PT004H.grib2 2026-04-23 14:41 481K
20260423T12Z_MSC_RDPS_Rain-Accum_Sfc_RLatLon0.09_PT004H.grib2 2026-04-23 14:41 935K
20260423T12Z_MSC_RDPS_RelativeHumidity_AGL-2m_RLatLon0.09_PT004H.grib2 2026-04-23 14:41 1.0M
20260423T12Z_MSC_RDPS_RelativeHumidity_IsbL-0010_RLatLon0.09_PT004H.grib2 2026-04-23 14:41 627K
20260423T12Z_MSC_RDPS_RelativeHumidity_IsbL-0020_RLatLon0.09_PT004H.grib2 2026-04-23 14:41 651K
20260423T12Z_MSC_RDPS_RelativeHumidity_IsbL-0030_RLatLon0.09_PT004H.grib2 2026-04-23 14:41 536K
20260423T12Z_MSC_RDPS_RelativeHumidity_IsbL-0050_RLatLon0.09_PT004H.grib2 2026-04-23 14:41 313K
20260423T12Z_MSC_RDPS_RelativeHumidity_IsbL-0100_RLatLon0.09_PT004H.grib2 2026-04-23 14:41 355K
20260423T12Z_MSC_RDPS_RelativeHumidity_IsbL-0150_RLatLon0.09_PT004H.grib2 2026-04-23 14:41 376K
20260423T12Z_MSC_RDPS_RelativeHumidity_IsbL-0175_RLatLon0.09_PT004H.grib2 2026-04-23 14:41 469K
20260423T12Z_MSC_RDPS_RelativeHumidity_IsbL-0200_RLatLon0.09_PT004H.grib2 2026-04-23 14:41 557K
20260423T12Z_MSC_RDPS_RelativeHumidity_IsbL-0225_RLatLon0.09_PT004H.grib2 2026-04-23 14:41 620K
20260423T12Z_MSC_RDPS_RelativeHumidity_IsbL-0250_RLatLon0.09_PT004H.grib2 2026-04-23 14:41 682K
20260423T12Z_MSC_RDPS_RelativeHumidity_IsbL-0275_RLatLon0.09_PT004H.grib2 2026-04-23 14:41 704K
20260423T12Z_MSC_RDPS_RelativeHumidity_IsbL-0300_RLatLon0.09_PT004H.grib2 2026-04-23 14:41 746K
20260423T12Z_MSC_RDPS_RelativeHumidity_IsbL-0350_RLatLon0.09_PT004H.grib2 2026-04-23 14:41 769K
20260423T12Z_MSC_RDPS_RelativeHumidity_IsbL-0400_RLatLon0.09_PT004H.grib2 2026-04-23 14:41 782K
20260423T12Z_MSC_RDPS_RelativeHumidity_IsbL-0450_RLatLon0.09_PT004H.grib2 2026-04-23 14:41 790K
20260423T12Z_MSC_RDPS_RelativeHumidity_IsbL-0500_RLatLon0.09_PT004H.grib2 2026-04-23 14:41 812K
20260423T12Z_MSC_RDPS_RelativeHumidity_IsbL-0550_RLatLon0.09_PT004H.grib2 2026-04-23 14:41 834K
20260423T12Z_MSC_RDPS_RelativeHumidity_IsbL-0600_RLatLon0.09_PT004H.grib2 2026-04-23 14:41 848K
20260423T12Z_MSC_RDPS_RelativeHumidity_IsbL-0650_RLatLon0.09_PT004H.grib2 2026-04-23 14:41 853K
20260423T12Z_MSC_RDPS_RelativeHumidity_IsbL-0700_RLatLon0.09_PT004H.grib2 2026-04-23 14:41 872K
20260423T12Z_MSC_RDPS_RelativeHumidity_IsbL-0750_RLatLon0.09_PT004H.grib2 2026-04-23 14:41 915K
20260423T12Z_MSC_RDPS_RelativeHumidity_IsbL-0800_RLatLon0.09_PT004H.grib2 2026-04-23 14:41 1.0M
20260423T12Z_MSC_RDPS_RelativeHumidity_IsbL-0850_RLatLon0.09_PT004H.grib2 2026-04-23 14:41 1.0M
20260423T12Z_MSC_RDPS_RelativeHumidity_IsbL-0875_RLatLon0.09_PT004H.grib2 2026-04-23 14:41 1.0M
20260423T12Z_MSC_RDPS_RelativeHumidity_IsbL-0900_RLatLon0.09_PT004H.grib2 2026-04-23 14:41 1.1M
20260423T12Z_MSC_RDPS_RelativeHumidity_IsbL-0925_RLatLon0.09_PT004H.grib2 2026-04-23 14:41 1.1M
20260423T12Z_MSC_RDPS_RelativeHumidity_IsbL-0950_RLatLon0.09_PT004H.grib2 2026-04-23 14:41 1.0M
20260423T12Z_MSC_RDPS_RelativeHumidity_IsbL-0970_RLatLon0.09_PT004H.grib2 2026-04-23 14:41 1.0M
20260423T12Z_MSC_RDPS_RelativeHumidity_IsbL-0985_RLatLon0.09_PT004H.grib2 2026-04-23 14:41 1.0M
20260423T12Z_MSC_RDPS_RelativeHumidity_IsbL-1000_RLatLon0.09_PT004H.grib2 2026-04-23 14:41 1.0M
20260423T12Z_MSC_RDPS_RelativeHumidity_IsbL-1015_RLatLon0.09_PT004H.grib2 2026-04-23 14:41 1.0M
20260423T12Z_MSC_RDPS_Runoff-Accum_Sfc_RLatLon0.09_PT004H.grib2 2026-04-23 14:41 31K
20260423T12Z_MSC_RDPS_SWEATIndex_Sfc_RLatLon0.09_PT004H.grib2 2026-04-23 14:41 2.4M
20260423T12Z_MSC_RDPS_SeeingIndex_EAtm_RLatLon0.09_PT004H.grib2 2026-04-23 14:41 1.0M
20260423T12Z_MSC_RDPS_SensibleHeatNetFlux_Sfc_RLatLon0.09_PT004H.grib2 2026-04-23 14:41 369K
20260423T12Z_MSC_RDPS_ShowalterIndex_IsbL-0500_RLatLon0.09_PT004H.grib2 2026-04-23 14:41 2.6M
20260423T12Z_MSC_RDPS_SkyTransparencyIndex_EAtm_RLatLon0.09_PT004H.grib2 2026-04-23 14:41 711K
20260423T12Z_MSC_RDPS_Snow-Accum1h_Sfc_RLatLon0.09_PT004H.grib2 2026-04-23 14:41 435K
20260423T12Z_MSC_RDPS_Snow-Accum_Sfc_RLatLon0.09_PT004H.grib2 2026-04-23 14:41 624K
20260423T12Z_MSC_RDPS_SnowDensity_Sfc_RLatLon0.09_PT004H.grib2 2026-04-23 14:41 172K
20260423T12Z_MSC_RDPS_SnowDepth_Sfc_RLatLon0.09_PT004H.grib2 2026-04-23 14:41 706K
20260423T12Z_MSC_RDPS_SoilTemp_DBS-0to10cm_RLatLon0.09_PT004H.grib2 2026-04-23 14:41 194K
20260423T12Z_MSC_RDPS_SoilTemp_Sfc_RLatLon0.09_PT004H.grib2 2026-04-23 14:41 286K
20260423T12Z_MSC_RDPS_SoilVolumetricIceContent_Sfc_RLatLon0.09_PT004H.grib2 2026-04-23 14:41 168K
20260423T12Z_MSC_RDPS_SoilVolumetricWaterContent_DBS-0to10cm_RLatLon0.09_PT004H.grib2 2026-04-23 14:41 251K
20260423T12Z_MSC_RDPS_SoilVolumetricWaterContent_DBS-0to1cm_RLatLon0.09_PT004H.grib2 2026-04-23 14:41 333K
20260423T12Z_MSC_RDPS_SpecificHumidity_AGL-120m_RLatLon0.09_PT004H.grib2 2026-04-23 14:41 480K
20260423T12Z_MSC_RDPS_SpecificHumidity_AGL-2m_RLatLon0.09_PT004H.grib2 2026-04-23 14:41 645K
20260423T12Z_MSC_RDPS_SpecificHumidity_AGL-40m_RLatLon0.09_PT004H.grib2 2026-04-23 14:41 484K
20260423T12Z_MSC_RDPS_SpecificHumidity_AGL-80m_RLatLon0.09_PT004H.grib2 2026-04-23 14:41 480K
20260423T12Z_MSC_RDPS_SpecificHumidity_IsbL-0001_RLatLon0.09_PT004H.grib2 2026-04-23 14:41 334K
20260423T12Z_MSC_RDPS_SpecificHumidity_IsbL-0005_RLatLon0.09_PT004H.grib2 2026-04-23 14:41 343K
20260423T12Z_MSC_RDPS_SpecificHumidity_IsbL-0010_RLatLon0.09_PT004H.grib2 2026-04-23 14:41 385K
20260423T12Z_MSC_RDPS_SpecificHumidity_IsbL-0020_RLatLon0.09_PT004H.grib2 2026-04-23 14:41 378K
20260423T12Z_MSC_RDPS_SpecificHumidity_IsbL-0030_RLatLon0.09_PT004H.grib2 2026-04-23 14:41 475K
20260423T12Z_MSC_RDPS_SpecificHumidity_IsbL-0050_RLatLon0.09_PT004H.grib2 2026-04-23 14:41 466K
20260423T12Z_MSC_RDPS_SpecificHumidity_IsbL-0100_RLatLon0.09_PT004H.grib2 2026-04-23 14:41 540K
20260423T12Z_MSC_RDPS_SpecificHumidity_IsbL-0150_RLatLon0.09_PT004H.grib2 2026-04-23 14:41 428K
20260423T12Z_MSC_RDPS_SpecificHumidity_IsbL-0175_RLatLon0.09_PT004H.grib2 2026-04-23 14:41 422K
20260423T12Z_MSC_RDPS_SpecificHumidity_IsbL-0200_RLatLon0.09_PT004H.grib2 2026-04-23 14:41 543K
20260423T12Z_MSC_RDPS_SpecificHumidity_IsbL-0225_RLatLon0.09_PT004H.grib2 2026-04-23 14:41 548K
20260423T12Z_MSC_RDPS_SpecificHumidity_IsbL-0250_RLatLon0.09_PT004H.grib2 2026-04-23 14:41 549K
20260423T12Z_MSC_RDPS_SpecificHumidity_IsbL-0275_RLatLon0.09_PT004H.grib2 2026-04-23 14:41 467K
20260423T12Z_MSC_RDPS_SpecificHumidity_IsbL-0300_RLatLon0.09_PT004H.grib2 2026-04-23 14:41 536K
20260423T12Z_MSC_RDPS_SpecificHumidity_IsbL-0350_RLatLon0.09_PT004H.grib2 2026-04-23 14:41 530K
20260423T12Z_MSC_RDPS_SpecificHumidity_IsbL-0400_RLatLon0.09_PT004H.grib2 2026-04-23 14:41 512K
20260423T12Z_MSC_RDPS_SpecificHumidity_IsbL-0450_RLatLon0.09_PT004H.grib2 2026-04-23 14:41 566K
20260423T12Z_MSC_RDPS_SpecificHumidity_IsbL-0500_RLatLon0.09_PT004H.grib2 2026-04-23 14:41 506K
20260423T12Z_MSC_RDPS_SpecificHumidity_IsbL-0550_RLatLon0.09_PT004H.grib2 2026-04-23 14:41 563K
20260423T12Z_MSC_RDPS_SpecificHumidity_IsbL-0600_RLatLon0.09_PT004H.grib2 2026-04-23 14:41 625K
20260423T12Z_MSC_RDPS_SpecificHumidity_IsbL-0650_RLatLon0.09_PT004H.grib2 2026-04-23 14:41 535K
20260423T12Z_MSC_RDPS_SpecificHumidity_IsbL-0700_RLatLon0.09_PT004H.grib2 2026-04-23 14:41 573K
20260423T12Z_MSC_RDPS_SpecificHumidity_IsbL-0750_RLatLon0.09_PT004H.grib2 2026-04-23 14:41 629K
20260423T12Z_MSC_RDPS_SpecificHumidity_IsbL-0800_RLatLon0.09_PT004H.grib2 2026-04-23 14:41 701K
20260423T12Z_MSC_RDPS_SpecificHumidity_IsbL-0850_RLatLon0.09_PT004H.grib2 2026-04-23 14:41 778K
20260423T12Z_MSC_RDPS_SpecificHumidity_IsbL-0875_RLatLon0.09_PT004H.grib2 2026-04-23 14:41 802K
20260423T12Z_MSC_RDPS_SpecificHumidity_IsbL-0900_RLatLon0.09_PT004H.grib2 2026-04-23 14:41 816K
20260423T12Z_MSC_RDPS_SpecificHumidity_IsbL-0925_RLatLon0.09_PT004H.grib2 2026-04-23 14:41 817K
20260423T12Z_MSC_RDPS_SpecificHumidity_IsbL-0950_RLatLon0.09_PT004H.grib2 2026-04-23 14:41 818K
20260423T12Z_MSC_RDPS_SpecificHumidity_IsbL-0970_RLatLon0.09_PT004H.grib2 2026-04-23 14:41 677K
20260423T12Z_MSC_RDPS_SpecificHumidity_IsbL-0985_RLatLon0.09_PT004H.grib2 2026-04-23 14:41 674K
20260423T12Z_MSC_RDPS_SpecificHumidity_IsbL-1000_RLatLon0.09_PT004H.grib2 2026-04-23 14:41 666K
20260423T12Z_MSC_RDPS_SpecificHumidity_IsbL-1015_RLatLon0.09_PT004H.grib2 2026-04-23 14:41 656K
20260423T12Z_MSC_RDPS_SpecificHumidity_Sfc_RLatLon0.09_PT004H.grib2 2026-04-23 14:41 322K
20260423T12Z_MSC_RDPS_StormRelativeHelicity_EtaL-10000_RLatLon0.09_PT004H.grib2 2026-04-23 14:41 1.1M
20260423T12Z_MSC_RDPS_StormSeverityIndex_EtaL-10000_RLatLon0.09_PT004H.grib2 2026-04-23 14:41 1.2M
20260423T12Z_MSC_RDPS_Thickness_IsbL-0850to0700_RLatLon0.09_PT004H.grib2 2026-04-23 14:41 178K
20260423T12Z_MSC_RDPS_Thickness_IsbL-1000to0500_RLatLon0.09_PT004H.grib2 2026-04-23 14:41 201K
20260423T12Z_MSC_RDPS_Thickness_IsbL-1000to0850_RLatLon0.09_PT004H.grib2 2026-04-23 14:41 191K
20260423T12Z_MSC_RDPS_TotalCloudCover_Sfc_RLatLon0.09_PT004H.grib2 2026-04-23 14:41 650K
20260423T12Z_MSC_RDPS_TotalTotalsIndex_Sfc_RLatLon0.09_PT004H.grib2 2026-04-23 14:41 2.4M
20260423T12Z_MSC_RDPS_UVIndex-ClearSky_Sfc_RLatLon0.09_PT004H.grib2 2026-04-23 14:41 202K
20260423T12Z_MSC_RDPS_UVIndex_Sfc_RLatLon0.09_PT004H.grib2 2026-04-23 14:41 460K
20260423T12Z_MSC_RDPS_UpwardLongwaveRadiationFlux_NTAtm_RLatLon0.09_PT004H.grib2 2026-04-23 14:41 486K
20260423T12Z_MSC_RDPS_UpwardShortwaveRadiationFlux_NTAtm_RLatLon0.09_PT004H.grib2 2026-04-23 14:41 507K
20260423T12Z_MSC_RDPS_VerticalVelocity_IsbL-0250_RLatLon0.09_PT004H.grib2 2026-04-23 14:41 568K
20260423T12Z_MSC_RDPS_VerticalVelocity_IsbL-0500_RLatLon0.09_PT004H.grib2 2026-04-23 14:41 583K
20260423T12Z_MSC_RDPS_VerticalVelocity_IsbL-0700_RLatLon0.09_PT004H.grib2 2026-04-23 14:41 604K
20260423T12Z_MSC_RDPS_VerticalVelocity_IsbL-0850_RLatLon0.09_PT004H.grib2 2026-04-23 14:41 706K
20260423T12Z_MSC_RDPS_VerticalWindShear_EtaL-6500_RLatLon0.09_PT004H.grib2 2026-04-23 14:41 1.2M
20260423T12Z_MSC_RDPS_WindChill_Sfc_RLatLon0.09_PT004H.grib2 2026-04-23 14:41 1.2M
20260423T12Z_MSC_RDPS_WindDir_AGL-10m_RLatLon0.09_PT004H.grib2 2026-04-23 14:41 953K
20260423T12Z_MSC_RDPS_WindDir_AGL-120m_RLatLon0.09_PT004H.grib2 2026-04-23 14:41 601K
20260423T12Z_MSC_RDPS_WindDir_AGL-40m_RLatLon0.09_PT004H.grib2 2026-04-23 14:41 623K
20260423T12Z_MSC_RDPS_WindDir_AGL-80m_RLatLon0.09_PT004H.grib2 2026-04-23 14:41 610K
20260423T12Z_MSC_RDPS_WindDir_IsbL-0001_RLatLon0.09_PT004H.grib2 2026-04-23 14:41 273K
20260423T12Z_MSC_RDPS_WindDir_IsbL-0005_RLatLon0.09_PT004H.grib2 2026-04-23 14:41 355K
20260423T12Z_MSC_RDPS_WindDir_IsbL-0010_RLatLon0.09_PT004H.grib2 2026-04-23 14:41 364K
20260423T12Z_MSC_RDPS_WindDir_IsbL-0020_RLatLon0.09_PT004H.grib2 2026-04-23 14:41 378K
20260423T12Z_MSC_RDPS_WindDir_IsbL-0030_RLatLon0.09_PT004H.grib2 2026-04-23 14:41 382K
20260423T12Z_MSC_RDPS_WindDir_IsbL-0050_RLatLon0.09_PT004H.grib2 2026-04-23 14:41 413K
20260423T12Z_MSC_RDPS_WindDir_IsbL-0100_RLatLon0.09_PT004H.grib2 2026-04-23 14:41 415K
20260423T12Z_MSC_RDPS_WindDir_IsbL-0150_RLatLon0.09_PT004H.grib2 2026-04-23 14:41 412K
20260423T12Z_MSC_RDPS_WindDir_IsbL-0175_RLatLon0.09_PT004H.grib2 2026-04-23 14:41 430K
20260423T12Z_MSC_RDPS_WindDir_IsbL-0200_RLatLon0.09_PT004H.grib2 2026-04-23 14:41 437K
20260423T12Z_MSC_RDPS_WindDir_IsbL-0225_RLatLon0.09_PT004H.grib2 2026-04-23 14:41 431K
20260423T12Z_MSC_RDPS_WindDir_IsbL-0250_RLatLon0.09_PT004H.grib2 2026-04-23 14:41 429K
20260423T12Z_MSC_RDPS_WindDir_IsbL-0275_RLatLon0.09_PT004H.grib2 2026-04-23 14:41 454K
20260423T12Z_MSC_RDPS_WindDir_IsbL-0300_RLatLon0.09_PT004H.grib2 2026-04-23 14:41 451K
20260423T12Z_MSC_RDPS_WindDir_IsbL-0350_RLatLon0.09_PT004H.grib2 2026-04-23 14:41 480K
20260423T12Z_MSC_RDPS_WindDir_IsbL-0400_RLatLon0.09_PT004H.grib2 2026-04-23 14:41 503K
20260423T12Z_MSC_RDPS_WindDir_IsbL-0450_RLatLon0.09_PT004H.grib2 2026-04-23 14:41 525K
20260423T12Z_MSC_RDPS_WindDir_IsbL-0500_RLatLon0.09_PT004H.grib2 2026-04-23 14:41 547K
20260423T12Z_MSC_RDPS_WindDir_IsbL-0550_RLatLon0.09_PT004H.grib2 2026-04-23 14:41 566K
20260423T12Z_MSC_RDPS_WindDir_IsbL-0600_RLatLon0.09_PT004H.grib2 2026-04-23 14:41 586K
20260423T12Z_MSC_RDPS_WindDir_IsbL-0650_RLatLon0.09_PT004H.grib2 2026-04-23 14:41 629K
20260423T12Z_MSC_RDPS_WindDir_IsbL-0700_RLatLon0.09_PT004H.grib2 2026-04-23 14:41 669K
20260423T12Z_MSC_RDPS_WindDir_IsbL-0750_RLatLon0.09_PT004H.grib2 2026-04-23 14:41 715K
20260423T12Z_MSC_RDPS_WindDir_IsbL-0800_RLatLon0.09_PT004H.grib2 2026-04-23 14:41 785K
20260423T12Z_MSC_RDPS_WindDir_IsbL-0850_RLatLon0.09_PT004H.grib2 2026-04-23 14:41 850K
20260423T12Z_MSC_RDPS_WindDir_IsbL-0875_RLatLon0.09_PT004H.grib2 2026-04-23 14:41 873K
20260423T12Z_MSC_RDPS_WindDir_IsbL-0900_RLatLon0.09_PT004H.grib2 2026-04-23 14:41 885K
20260423T12Z_MSC_RDPS_WindDir_IsbL-0925_RLatLon0.09_PT004H.grib2 2026-04-23 14:41 890K
20260423T12Z_MSC_RDPS_WindDir_IsbL-0950_RLatLon0.09_PT004H.grib2 2026-04-23 14:41 889K
20260423T12Z_MSC_RDPS_WindDir_IsbL-0970_RLatLon0.09_PT004H.grib2 2026-04-23 14:41 900K
20260423T12Z_MSC_RDPS_WindDir_IsbL-0985_RLatLon0.09_PT004H.grib2 2026-04-23 14:41 912K
20260423T12Z_MSC_RDPS_WindDir_IsbL-1000_RLatLon0.09_PT004H.grib2 2026-04-23 14:41 927K
20260423T12Z_MSC_RDPS_WindDir_IsbL-1015_RLatLon0.09_PT004H.grib2 2026-04-23 14:41 944K
20260423T12Z_MSC_RDPS_WindGust-Max_AGL-10m_RLatLon0.09_PT004H.grib2 2026-04-23 14:41 1.0M
20260423T12Z_MSC_RDPS_WindGust-Min_AGL-10m_RLatLon0.09_PT004H.grib2 2026-04-23 14:41 1.0M
20260423T12Z_MSC_RDPS_WindGust_AGL-10m_RLatLon0.09_PT004H.grib2 2026-04-23 14:41 1.0M
20260423T12Z_MSC_RDPS_WindSpeed_AGL-10m_RLatLon0.09_PT004H.grib2 2026-04-23 14:41 844K
20260423T12Z_MSC_RDPS_WindSpeed_AGL-120m_RLatLon0.09_PT004H.grib2 2026-04-23 14:41 540K
20260423T12Z_MSC_RDPS_WindSpeed_AGL-40m_RLatLon0.09_PT004H.grib2 2026-04-23 14:41 545K
20260423T12Z_MSC_RDPS_WindSpeed_AGL-80m_RLatLon0.09_PT004H.grib2 2026-04-23 14:41 541K
20260423T12Z_MSC_RDPS_WindSpeed_IsbL-0001_RLatLon0.09_PT004H.grib2 2026-04-23 14:41 245K
20260423T12Z_MSC_RDPS_WindSpeed_IsbL-0005_RLatLon0.09_PT004H.grib2 2026-04-23 14:41 285K
20260423T12Z_MSC_RDPS_WindSpeed_IsbL-0010_RLatLon0.09_PT004H.grib2 2026-04-23 14:41 294K
20260423T12Z_MSC_RDPS_WindSpeed_IsbL-0020_RLatLon0.09_PT004H.grib2 2026-04-23 14:41 404K
20260423T12Z_MSC_RDPS_WindSpeed_IsbL-0030_RLatLon0.09_PT004H.grib2 2026-04-23 14:41 314K
20260423T12Z_MSC_RDPS_WindSpeed_IsbL-0050_RLatLon0.09_PT004H.grib2 2026-04-23 14:41 347K
20260423T12Z_MSC_RDPS_WindSpeed_IsbL-0100_RLatLon0.09_PT004H.grib2 2026-04-23 14:41 475K
20260423T12Z_MSC_RDPS_WindSpeed_IsbL-0150_RLatLon0.09_PT004H.grib2 2026-04-23 14:41 374K
20260423T12Z_MSC_RDPS_WindSpeed_IsbL-0175_RLatLon0.09_PT004H.grib2 2026-04-23 14:41 406K
20260423T12Z_MSC_RDPS_WindSpeed_IsbL-0200_RLatLon0.09_PT004H.grib2 2026-04-23 14:41 445K
20260423T12Z_MSC_RDPS_WindSpeed_IsbL-0225_RLatLon0.09_PT004H.grib2 2026-04-23 14:41 450K
20260423T12Z_MSC_RDPS_WindSpeed_IsbL-0250_RLatLon0.09_PT004H.grib2 2026-04-23 14:41 450K
20260423T12Z_MSC_RDPS_WindSpeed_IsbL-0275_RLatLon0.09_PT004H.grib2 2026-04-23 14:41 464K
20260423T12Z_MSC_RDPS_WindSpeed_IsbL-0300_RLatLon0.09_PT004H.grib2 2026-04-23 14:41 460K
20260423T12Z_MSC_RDPS_WindSpeed_IsbL-0350_RLatLon0.09_PT004H.grib2 2026-04-23 14:41 471K
20260423T12Z_MSC_RDPS_WindSpeed_IsbL-0400_RLatLon0.09_PT004H.grib2 2026-04-23 14:41 460K
20260423T12Z_MSC_RDPS_WindSpeed_IsbL-0450_RLatLon0.09_PT004H.grib2 2026-04-23 14:41 460K
20260423T12Z_MSC_RDPS_WindSpeed_IsbL-0500_RLatLon0.09_PT004H.grib2 2026-04-23 14:41 462K
20260423T12Z_MSC_RDPS_WindSpeed_IsbL-0550_RLatLon0.09_PT004H.grib2 2026-04-23 14:41 584K
20260423T12Z_MSC_RDPS_WindSpeed_IsbL-0600_RLatLon0.09_PT004H.grib2 2026-04-23 14:41 594K
20260423T12Z_MSC_RDPS_WindSpeed_IsbL-0650_RLatLon0.09_PT004H.grib2 2026-04-23 14:41 614K
20260423T12Z_MSC_RDPS_WindSpeed_IsbL-0700_RLatLon0.09_PT004H.grib2 2026-04-23 14:41 633K
20260423T12Z_MSC_RDPS_WindSpeed_IsbL-0750_RLatLon0.09_PT004H.grib2 2026-04-23 14:41 708K
20260423T12Z_MSC_RDPS_WindSpeed_IsbL-0800_RLatLon0.09_PT004H.grib2 2026-04-23 14:41 761K
20260423T12Z_MSC_RDPS_WindSpeed_IsbL-0850_RLatLon0.09_PT004H.grib2 2026-04-23 14:41 814K
20260423T12Z_MSC_RDPS_WindSpeed_IsbL-0875_RLatLon0.09_PT004H.grib2 2026-04-23 14:41 834K
20260423T12Z_MSC_RDPS_WindSpeed_IsbL-0900_RLatLon0.09_PT004H.grib2 2026-04-23 14:41 843K
20260423T12Z_MSC_RDPS_WindSpeed_IsbL-0925_RLatLon0.09_PT004H.grib2 2026-04-23 14:41 852K
20260423T12Z_MSC_RDPS_WindSpeed_IsbL-0950_RLatLon0.09_PT004H.grib2 2026-04-23 14:41 852K
20260423T12Z_MSC_RDPS_WindSpeed_IsbL-0970_RLatLon0.09_PT004H.grib2 2026-04-23 14:41 858K
20260423T12Z_MSC_RDPS_WindSpeed_IsbL-0985_RLatLon0.09_PT004H.grib2 2026-04-23 14:41 858K
20260423T12Z_MSC_RDPS_WindSpeed_IsbL-1000_RLatLon0.09_PT004H.grib2 2026-04-23 14:41 855K
20260423T12Z_MSC_RDPS_WindSpeed_IsbL-1015_RLatLon0.09_PT004H.grib2 2026-04-23 14:41 847K
20260423T12Z_MSC_RDPS_WindU_AGL-10m_RLatLon0.09_PT004H.grib2 2026-04-23 14:41 437K
20260423T12Z_MSC_RDPS_WindU_AGL-120m_RLatLon0.09_PT004H.grib2 2026-04-23 14:41 420K
20260423T12Z_MSC_RDPS_WindU_AGL-40m_RLatLon0.09_PT004H.grib2 2026-04-23 14:41 540K
20260423T12Z_MSC_RDPS_WindU_AGL-80m_RLatLon0.09_PT004H.grib2 2026-04-23 14:41 421K
20260423T12Z_MSC_RDPS_WindU_IsbL-0001_RLatLon0.09_PT004H.grib2 2026-04-23 14:41 287K
20260423T12Z_MSC_RDPS_WindU_IsbL-0005_RLatLon0.09_PT004H.grib2 2026-04-23 14:41 276K
20260423T12Z_MSC_RDPS_WindU_IsbL-0010_RLatLon0.09_PT004H.grib2 2026-04-23 14:41 329K
20260423T12Z_MSC_RDPS_WindU_IsbL-0020_RLatLon0.09_PT004H.grib2 2026-04-23 14:41 302K
20260423T12Z_MSC_RDPS_WindU_IsbL-0030_RLatLon0.09_PT004H.grib2 2026-04-23 14:41 345K
20260423T12Z_MSC_RDPS_WindU_IsbL-0050_RLatLon0.09_PT004H.grib2 2026-04-23 14:41 337K
20260423T12Z_MSC_RDPS_WindU_IsbL-0100_RLatLon0.09_PT004H.grib2 2026-04-23 14:41 426K
20260423T12Z_MSC_RDPS_WindU_IsbL-0150_RLatLon0.09_PT004H.grib2 2026-04-23 14:41 389K
20260423T12Z_MSC_RDPS_WindU_IsbL-0175_RLatLon0.09_PT004H.grib2 2026-04-23 14:41 419K
20260423T12Z_MSC_RDPS_WindU_IsbL-0200_RLatLon0.09_PT004H.grib2 2026-04-23 14:41 436K
20260423T12Z_MSC_RDPS_WindU_IsbL-0225_RLatLon0.09_PT004H.grib2 2026-04-23 14:41 439K
20260423T12Z_MSC_RDPS_WindU_IsbL-0250_RLatLon0.09_PT004H.grib2 2026-04-23 14:41 342K
20260423T12Z_MSC_RDPS_WindU_IsbL-0275_RLatLon0.09_PT004H.grib2 2026-04-23 14:41 352K
20260423T12Z_MSC_RDPS_WindU_IsbL-0300_RLatLon0.09_PT004H.grib2 2026-04-23 14:41 348K
20260423T12Z_MSC_RDPS_WindU_IsbL-0350_RLatLon0.09_PT004H.grib2 2026-04-23 14:41 357K
20260423T12Z_MSC_RDPS_WindU_IsbL-0400_RLatLon0.09_PT004H.grib2 2026-04-23 14:41 360K
20260423T12Z_MSC_RDPS_WindU_IsbL-0450_RLatLon0.09_PT004H.grib2 2026-04-23 14:41 361K
20260423T12Z_MSC_RDPS_WindU_IsbL-0500_RLatLon0.09_PT004H.grib2 2026-04-23 14:41 466K
20260423T12Z_MSC_RDPS_WindU_IsbL-0550_RLatLon0.09_PT004H.grib2 2026-04-23 14:41 472K
20260423T12Z_MSC_RDPS_WindU_IsbL-0600_RLatLon0.09_PT004H.grib2 2026-04-23 14:41 481K
20260423T12Z_MSC_RDPS_WindU_IsbL-0650_RLatLon0.09_PT004H.grib2 2026-04-23 14:41 496K
20260423T12Z_MSC_RDPS_WindU_IsbL-0700_RLatLon0.09_PT004H.grib2 2026-04-23 14:41 500K
20260423T12Z_MSC_RDPS_WindU_IsbL-0750_RLatLon0.09_PT004H.grib2 2026-04-23 14:41 527K
20260423T12Z_MSC_RDPS_WindU_IsbL-0800_RLatLon0.09_PT004H.grib2 2026-04-23 14:41 575K
20260423T12Z_MSC_RDPS_WindU_IsbL-0850_RLatLon0.09_PT004H.grib2 2026-04-23 14:41 622K
20260423T12Z_MSC_RDPS_WindU_IsbL-0875_RLatLon0.09_PT004H.grib2 2026-04-23 14:41 639K
20260423T12Z_MSC_RDPS_WindU_IsbL-0900_RLatLon0.09_PT004H.grib2 2026-04-23 14:41 649K
20260423T12Z_MSC_RDPS_WindU_IsbL-0925_RLatLon0.09_PT004H.grib2 2026-04-23 14:41 653K
20260423T12Z_MSC_RDPS_WindU_IsbL-0950_RLatLon0.09_PT004H.grib2 2026-04-23 14:41 650K
20260423T12Z_MSC_RDPS_WindU_IsbL-0970_RLatLon0.09_PT004H.grib2 2026-04-23 14:41 654K
20260423T12Z_MSC_RDPS_WindU_IsbL-0985_RLatLon0.09_PT004H.grib2 2026-04-23 14:41 795K
20260423T12Z_MSC_RDPS_WindU_IsbL-1000_RLatLon0.09_PT004H.grib2 2026-04-23 14:41 793K
20260423T12Z_MSC_RDPS_WindU_IsbL-1015_RLatLon0.09_PT004H.grib2 2026-04-23 14:41 787K
20260423T12Z_MSC_RDPS_WindV_AGL-10m_RLatLon0.09_PT004H.grib2 2026-04-23 14:41 435K
20260423T12Z_MSC_RDPS_WindV_AGL-120m_RLatLon0.09_PT004H.grib2 2026-04-23 14:41 533K
20260423T12Z_MSC_RDPS_WindV_AGL-40m_RLatLon0.09_PT004H.grib2 2026-04-23 14:41 537K
20260423T12Z_MSC_RDPS_WindV_AGL-80m_RLatLon0.09_PT004H.grib2 2026-04-23 14:41 535K
20260423T12Z_MSC_RDPS_WindV_IsbL-0001_RLatLon0.09_PT004H.grib2 2026-04-23 14:41 285K
20260423T12Z_MSC_RDPS_WindV_IsbL-0005_RLatLon0.09_PT004H.grib2 2026-04-23 14:41 318K
20260423T12Z_MSC_RDPS_WindV_IsbL-0010_RLatLon0.09_PT004H.grib2 2026-04-23 14:41 286K
20260423T12Z_MSC_RDPS_WindV_IsbL-0020_RLatLon0.09_PT004H.grib2 2026-04-23 14:41 305K
20260423T12Z_MSC_RDPS_WindV_IsbL-0030_RLatLon0.09_PT004H.grib2 2026-04-23 14:41 346K
20260423T12Z_MSC_RDPS_WindV_IsbL-0050_RLatLon0.09_PT004H.grib2 2026-04-23 14:41 338K
20260423T12Z_MSC_RDPS_WindV_IsbL-0100_RLatLon0.09_PT004H.grib2 2026-04-23 14:41 330K
20260423T12Z_MSC_RDPS_WindV_IsbL-0150_RLatLon0.09_PT004H.grib2 2026-04-23 14:41 389K
20260423T12Z_MSC_RDPS_WindV_IsbL-0175_RLatLon0.09_PT004H.grib2 2026-04-23 14:41 418K
20260423T12Z_MSC_RDPS_WindV_IsbL-0200_RLatLon0.09_PT004H.grib2 2026-04-23 14:41 339K
20260423T12Z_MSC_RDPS_WindV_IsbL-0225_RLatLon0.09_PT004H.grib2 2026-04-23 14:41 366K
20260423T12Z_MSC_RDPS_WindV_IsbL-0250_RLatLon0.09_PT004H.grib2 2026-04-23 14:41 365K
20260423T12Z_MSC_RDPS_WindV_IsbL-0275_RLatLon0.09_PT004H.grib2 2026-04-23 14:41 376K
20260423T12Z_MSC_RDPS_WindV_IsbL-0300_RLatLon0.09_PT004H.grib2 2026-04-23 14:41 372K
20260423T12Z_MSC_RDPS_WindV_IsbL-0350_RLatLon0.09_PT004H.grib2 2026-04-23 14:41 355K
20260423T12Z_MSC_RDPS_WindV_IsbL-0400_RLatLon0.09_PT004H.grib2 2026-04-23 14:41 359K
20260423T12Z_MSC_RDPS_WindV_IsbL-0450_RLatLon0.09_PT004H.grib2 2026-04-23 14:41 461K
20260423T12Z_MSC_RDPS_WindV_IsbL-0500_RLatLon0.09_PT004H.grib2 2026-04-23 14:41 464K
20260423T12Z_MSC_RDPS_WindV_IsbL-0550_RLatLon0.09_PT004H.grib2 2026-04-23 14:41 468K
20260423T12Z_MSC_RDPS_WindV_IsbL-0600_RLatLon0.09_PT004H.grib2 2026-04-23 14:41 478K
20260423T12Z_MSC_RDPS_WindV_IsbL-0650_RLatLon0.09_PT004H.grib2 2026-04-23 14:41 494K
20260423T12Z_MSC_RDPS_WindV_IsbL-0700_RLatLon0.09_PT004H.grib2 2026-04-23 14:41 512K
20260423T12Z_MSC_RDPS_WindV_IsbL-0750_RLatLon0.09_PT004H.grib2 2026-04-23 14:41 537K
20260423T12Z_MSC_RDPS_WindV_IsbL-0800_RLatLon0.09_PT004H.grib2 2026-04-23 14:41 570K
20260423T12Z_MSC_RDPS_WindV_IsbL-0850_RLatLon0.09_PT004H.grib2 2026-04-23 14:41 618K
20260423T12Z_MSC_RDPS_WindV_IsbL-0875_RLatLon0.09_PT004H.grib2 2026-04-23 14:41 636K
20260423T12Z_MSC_RDPS_WindV_IsbL-0900_RLatLon0.09_PT004H.grib2 2026-04-23 14:41 646K
20260423T12Z_MSC_RDPS_WindV_IsbL-0925_RLatLon0.09_PT004H.grib2 2026-04-23 14:41 652K
20260423T12Z_MSC_RDPS_WindV_IsbL-0950_RLatLon0.09_PT004H.grib2 2026-04-23 14:41 649K
20260423T12Z_MSC_RDPS_WindV_IsbL-0970_RLatLon0.09_PT004H.grib2 2026-04-23 14:41 791K
20260423T12Z_MSC_RDPS_WindV_IsbL-0985_RLatLon0.09_PT004H.grib2 2026-04-23 14:41 790K
20260423T12Z_MSC_RDPS_WindV_IsbL-1000_RLatLon0.09_PT004H.grib2 2026-04-23 14:41 787K
20260423T12Z_MSC_RDPS_WindV_IsbL-1015_RLatLon0.09_PT004H.grib2 2026-04-23 14:41 828K